| time (UTC) | temp F | wind direction | speed MPH | gust MPH | rain 1hr in | rain 24hr in | rain mn in | humidity % | barometer mb |
| 20260508085350 | 66 | 0.0 | 0.0 | 0.00 | 0.00 | 0.00 | 10 | 1011.4 | |
| 20260508084850 | 66 | 0.0 | 0.0 | 0.00 | 0.00 | 0.00 | 10 | 1011.2 | |
| 20260508084350 | 65 | 0.0 | 0.0 | 0.00 | 0.00 | 0.00 | 10 | 1011.1 | |
| 20260508083850 | 65 | 0.0 | 0.0 | 0.00 | 0.00 | 0.00 | 10 | 1011.2 | |
| 20260508083350 | 65 | 0.0 | 0.0 | 0.00 | 0.00 | 0.00 | 10 | 1011.3 | |
| 20260508082850 | 66 | 0.0 | 0.0 | 0.00 | 0.00 | 0.00 | 10 | 1011.4 | |
| 20260508082350 | 65 | 0.0 | 0.0 | 0.00 | 0.00 | 0.00 | 10 | 1011.0 | |
| 20260508081850 | 66 | 0.0 | 0.0 | 0.00 | 0.00 | 0.00 | 10 | 1010.9 | |
| 20260508081350 | 65 | 0.0 | 0.0 | 0.00 | 0.00 | 0.00 | 10 | 1011.0 | |
| 20260508080850 | 66 | 0.0 | 0.0 | 0.00 | 0.00 | 0.00 | 10 | 1011.0 | |
| 20260508080350 | 66 | 0.0 | 0.0 | 0.00 | 0.00 | 0.00 | 10 | 1011.2 | |
| 20260508075850 | 65 | 0.0 | 0.0 | 0.00 | 0.00 | 0.00 | 10 | 1011.0 | |
| 20260508075350 | 65 | 0.0 | 0.0 | 0.00 | 0.00 | 0.00 | 10 | 1011.1 | |
| 20260508074850 | 66 | 0.0 | 0.0 | 0.00 | 0.00 | 0.00 | 10 | 1011.3 | |
| 20260508074350 | 65 | 0.0 | 0.0 | 0.00 | 0.00 | 0.00 | 10 | 1011.5 | |
| 20260508073850 | 64 | 0.0 | 0.0 | 0.00 | 0.00 | 0.00 | 10 | 1011.5 | |
| 20260508073350 | 64 | 0.0 | 0.0 | 0.00 | 0.00 | 0.00 | 10 | 1011.3 | |
| 20260508072850 | 63 | 0.0 | 0.0 | 0.00 | 0.00 | 0.00 | 10 | 1010.9 | |
| 20260508072350 | 63 | 0.0 | 0.0 | 0.00 | 0.00 | 0.00 | 10 | 1010.9 | |
| 20260508071850 | 64 | 0.0 | 0.0 | 0.00 | 0.00 | 0.00 | 10 | 1011.3 | |
| 20260508071350 | 64 | 0.0 | 0.0 | 0.00 | 0.00 | 0.00 | 10 | 1012.0 | |
| 20260508070850 | 64 | 0.0 | 0.0 | 0.00 | 0.00 | 0.00 | 10 | 1011.0 | |
| 20260508070350 | 64 | 0.0 | 0.0 | 0.00 | 0.00 | 0.00 | 10 | 1011.7 | |
| 20260508065850 | 63 | 0.0 | 0.0 | 0.00 | 0.00 | 0.00 | 10 | 1010.9 | |
| 20260508065350 | 63 | 0.0 | 0.0 | 0.00 | 0.00 | 0.00 | 10 | 1012.2 | |
| 20260508064850 | 63 | 0.0 | 0.0 | 0.00 | 0.00 | 0.00 | 10 | 1012.2 | |
| 20260508064350 | 63 | 0.0 | 0.0 | 0.00 | 0.00 | 0.00 | 10 | 1012.1 | |
| 20260508063850 | 63 | 0.0 | 0.0 | 0.00 | 0.00 | 0.00 | 10 | 1012.0 | |
| 20260508063350 | 64 | 0.0 | 0.0 | 0.00 | 0.00 | 0.00 | 10 | 1011.6 | |
| 20260508062850 | 64 | 0.0 | 0.0 | 0.00 | 0.00 | 0.00 | 10 | 1011.5 | |
| 20260508062350 | 65 | 0.0 | 0.0 | 0.00 | 0.00 | 0.00 | 10 | 1011.4 | |
| 20260508061850 | 66 | 0.0 | 0.0 | 0.00 | 0.00 | 0.00 | 10 | 1011.0 | |
| 20260508061350 | 67 | 0.0 | 0.0 | 0.00 | 0.00 | 0.00 | 10 | 1010.7 | |
| 20260508060850 | 67 | 0.0 | 0.0 | 0.00 | 0.00 | 0.00 | 10 | 1010.2 | |
| 20260508060350 | 68 | 0.0 | 0.0 | 0.00 | 0.00 | 0.00 | 10 | 1009.6 | |
| 20260508055850 | 69 | 0.0 | 0.0 | 0.00 | 0.00 | 0.00 | 10 | 1009.5 | |
| 20260508055350 | 68 | 0.0 | 0.0 | 0.00 | 0.00 | 0.00 | 10 | 1009.2 | |
| 20260508054850 | 68 | 0.0 | 0.0 | 0.00 | 0.00 | 0.00 | 10 | 1009.3 | |
| 20260508054350 | 68 | 0.0 | 0.0 | 0.00 | 0.00 | 0.00 | 10 | 1009.4 | |
| 20260508053850 | 68 | 0.0 | 0.0 | 0.00 | 0.00 | 0.00 | 10 | 1009.4 | |
| 20260508053350 | 67 | 0.0 | 0.0 | 0.00 | 0.00 | 0.00 | 10 | 1009.8 | |
| 20260508052850 | 67 | 0.0 | 0.0 | 0.00 | 0.00 | 0.00 | 10 | 1008.8 | |
| 20260508052350 | 68 | 0.0 | 0.0 | 0.00 | 0.00 | 0.00 | 10 | 1008.8 | |
| 20260508051852 | 68 | 0.0 | 0.0 | 0.00 | 0.00 | 0.00 | 10 | 1008.9 | |
| 20260508051350 | 68 | 0.0 | 0.0 | 0.00 | 0.00 | 0.00 | 10 | 1009.2 | |
| 20260508050850 | 68 | 0.0 | 0.0 | 0.00 | 0.00 | 0.00 | 10 | 1009.5 | |
| 20260508050350 | 68 | 0.0 | 0.0 | 0.00 | 0.00 | 0.00 | 10 | 1009.9 | |
| 20260508045850 | 69 | 0.0 | 0.0 | 0.00 | 0.00 | 0.00 | 10 | 1010.5 | |
| 20260508045350 | 69 | 0.0 | 0.0 | 0.00 | 0.00 | 0.00 | 10 | 1010.7 | |
| 20260508044850 | 70 | 0.0 | 0.0 | 0.00 | 0.00 | 0.00 | 10 | 1010.8 | |
| 20260508044350 | 70 | 0.0 | 0.0 | 0.00 | 0.00 | 0.00 | 10 | 1011.2 | |
| 20260508043850 | 70 | 0.0 | 0.0 | 0.00 | 0.00 | 0.00 | 10 | 1011.5 | |
| 20260508043350 | 69 | 0.0 | 0.0 | 0.00 | 0.00 | 0.00 | 10 | 1011.7 | |
| 20260508042850 | 70 | 0.0 | 0.0 | 0.00 | 0.00 | 0.00 | 10 | 1011.6 | |
| 20260508042350 | 70 | 0.0 | 0.0 | 0.00 | 0.00 | 0.00 | 10 | 1011.3 | |
| 20260508041850 | 70 | 0.0 | 0.0 | 0.00 | 0.00 | 0.00 | 10 | 1010.9 | |
| 20260508041350 | 70 | 0.0 | 0.0 | 0.00 | 0.00 | 0.00 | 10 | 1011.0 | |
| 20260508040850 | 70 | 0.0 | 0.0 | 0.00 | 0.00 | 0.00 | 10 | 1011.1 | |
| 20260508040350 | 70 | 0.0 | 0.0 | 0.00 | 0.00 | 0.00 | 10 | 1011.4 | |
| 20260508035850 | 70 | 0.0 | 0.0 | 0.00 | 0.00 | 0.00 | 10 | 1011.6 | |
| 20260508035350 | 70 | 0.0 | 0.0 | 0.00 | 0.00 | 0.00 | 10 | 1012.0 | |
| 20260508034850 | 70 | 0.0 | 0.0 | 0.00 | 0.00 | 0.00 | 10 | 1012.1 | |
| 20260508034350 | 70 | 0.0 | 0.0 | 0.00 | 0.00 | 0.00 | 10 | 1011.6 | |
| 20260508033850 | 71 | 0.0 | 0.0 | 0.00 | 0.00 | 0.00 | 10 | 1010.8 | |
| 20260508033350 | 71 | 0.0 | 0.0 | 0.00 | 0.00 | 0.00 | 10 | 1011.0 | |
| 20260508032850 | 71 | 0.0 | 0.0 | 0.00 | 0.00 | 0.00 | 10 | 1010.6 | |
| 20260508032350 | 72 | 0.0 | 0.0 | 0.00 | 0.00 | 0.00 | 10 | 1010.7 | |
| 20260508031850 | 72 | 0.0 | 0.0 | 0.00 | 0.00 | 0.00 | 10 | 1009.7 | |
| 20260508031350 | 73 | 0.0 | 0.0 | 0.00 | 0.00 | 0.00 | 10 | 1009.2 | |
| 20260508030850 | 75 | 0.0 | 0.0 | 0.00 | 0.00 | 0.00 | 10 | 1008.9 | |
| 20260508030350 | 78 | 0.0 | 0.0 | 0.00 | 0.00 | 0.00 | 81 | 1007.7 | |
| 20260508025850 | 78 | 0.0 | 0.0 | 0.00 | 0.00 | 0.00 | 77 | 1007.3 | |
| 20260508025350 | 78 | 0.0 | 0.0 | 0.00 | 0.00 | 0.00 | 75 | 1007.1 | |
| 20260508024850 | 78 | 0.0 | 0.0 | 0.00 | 0.00 | 0.00 | 75 | 1006.1 | |
| 20260508024350 | 78 | 0.0 | 0.0 | 0.00 | 0.00 | 0.00 | 75 | 1005.6 | |
| 20260508023850 | 78 | 0.0 | 0.0 | 0.00 | 0.00 | 0.00 | 74 | 1005.4 | |
| 20260508023350 | 78 | 0.0 | 0.0 | 0.00 | 0.00 | 0.00 | 75 | 1005.4 | |
| 20260508022850 | 78 | 0.0 | 0.0 | 0.00 | 0.00 | 0.00 | 75 | 1005.3 | |
| 20260508022350 | 78 | 0.0 | 0.0 | 0.00 | 0.00 | 0.00 | 75 | 1005.1 | |
| 20260508021850 | 78 | 0.0 | 0.0 | 0.00 | 0.00 | 0.00 | 75 | 1005.0 | |
| 20260508021350 | 78 | 0.0 | 0.0 | 0.00 | 0.00 | 0.00 | 75 | 1005.0 | |
| 20260508020850 | 78 | 0.0 | 0.0 | 0.00 | 0.00 | 0.00 | 75 | 1004.8 | |
| 20260508020350 | 78 | 0.0 | 0.0 | 0.00 | 0.00 | 0.00 | 75 | 1004.9 | |
| 20260508015850 | 79 | 0.0 | 0.0 | 0.00 | 0.00 | 0.00 | 75 | 1004.9 | |
| 20260508015350 | 79 | 0.0 | 0.0 | 0.00 | 0.00 | 0.00 | 75 | 1004.8 | |
| 20260508014850 | 79 | 0.0 | 0.0 | 0.00 | 0.00 | 0.00 | 74 | 1004.7 | |
| 20260508014350 | 78 | 0.0 | 0.0 | 0.00 | 0.00 | 0.00 | 74 | 1004.5 | |
| 20260508013850 | 79 | 0.0 | 0.0 | 0.00 | 0.00 | 0.00 | 74 | 1004.4 | |
| 20260508013350 | 79 | 0.0 | 0.0 | 0.00 | 0.00 | 0.00 | 74 | 1004.5 | |
| 20260508012850 | 79 | 0.0 | 0.0 | 0.00 | 0.00 | 0.00 | 74 | 1004.6 | |
| 20260508012350 | 79 | 0.0 | 0.0 | 0.00 | 0.00 | 0.00 | 73 | 1005.0 | |
| 20260508011850 | 79 | 0.0 | 0.0 | 0.00 | 0.00 | 0.00 | 73 | 1004.8 | |
| 20260508011350 | 79 | 0.0 | 0.0 | 0.00 | 0.00 | 0.00 | 74 | 1005.0 | |
| 20260508010850 | 79 | 0.0 | 0.0 | 0.00 | 0.00 | 0.00 | 73 | 1004.8 | |
| 20260508010350 | 79 | 0.0 | 0.0 | 0.00 | 0.00 | 0.00 | 73 | 1004.8 | |
| 20260508005850 | 79 | 0.0 | 0.0 | 0.00 | 0.00 | 0.00 | 73 | 1004.7 | |
| 20260508005350 | 79 | 0.0 | 0.0 | 0.00 | 0.00 | 0.00 | 73 | 1004.9 | |
| 20260508004850 | 79 | 0.0 | 0.0 | 0.00 | 0.00 | 0.00 | 73 | 1005.0 | |
| 20260508004350 | 79 | 0.0 | 0.0 | 0.00 | 0.00 | 0.00 | 74 | 1004.9 | |
| 20260508003850 | 79 | 0.0 | 0.0 | 0.00 | 0.00 | 0.00 | 73 | 1005.1 | |
| 20260508003350 | 79 | 0.0 | 0.0 | 0.00 | 0.00 | 0.00 | 73 | 1005.0 | |
| 20260508002850 | 79 | 0.0 | 0.0 | 0.00 | 0.00 | 0.00 | 73 | 1005.2 | |
| 20260508002350 | 79 | 0.0 | 0.0 | 0.00 | 0.00 | 0.00 | 73 | 1005.2 | |
| 20260508001850 | 79 | 0.0 | 0.0 | 0.00 | 0.00 | 0.00 | 73 | 1005.2 | |
| 20260508001350 | 79 | 0.0 | 0.0 | 0.00 | 0.00 | 0.00 | 73 | 1005.3 | |
| 20260508000850 | 79 | 0.0 | 0.0 | 0.00 | 0.00 | 0.00 | 74 | 1005.3 | |
| 20260508000350 | 79 | 0.0 | 0.0 | 0.00 | 0.00 | 0.00 | 74 | 1005.5 | |
| 20260507235850 | 79 | 0.0 | 0.0 | 0.00 | 0.00 | 0.00 | 74 | 1005.4 | |
| 20260507235350 | 79 | 0.0 | 0.0 | 0.00 | 0.00 | 0.00 | 74 | 1005.3 | |
| 20260507234850 | 79 | 0.0 | 0.0 | 0.00 | 0.00 | 0.00 | 73 | 1005.3 | |
| 20260507234350 | 79 | 0.0 | 0.0 | 0.00 | 0.00 | 0.00 | 74 | 1005.4 | |
| 20260507233850 | 79 | 0.0 | 0.0 | 0.00 | 0.00 | 0.00 | 74 | 1005.5 | |
| 20260507233350 | 79 | 0.0 | 0.0 | 0.00 | 0.00 | 0.00 | 74 | 1005.3 | |
| 20260507232850 | 79 | 0.0 | 0.0 | 0.00 | 0.00 | 0.00 | 74 | 1005.5 | |
| 20260507232350 | 79 | 0.0 | 0.0 | 0.00 | 0.00 | 0.00 | 75 | 1005.5 | |
| 20260507231850 | 79 | 0.0 | 0.0 | 0.00 | 0.00 | 0.00 | 75 | 1005.4 | |
| 20260507231350 | 79 | 0.0 | 0.0 | 0.00 | 0.00 | 0.00 | 75 | 1005.5 | |
| 20260507230850 | 79 | 0.0 | 0.0 | 0.00 | 0.00 | 0.00 | 74 | 1005.4 | |
| 20260507230354 | 79 | 0.0 | 0.0 | 0.00 | 0.00 | 0.00 | 75 | 1005.4 | |
| 20260507225850 | 79 | 0.0 | 0.0 | 0.00 | 0.00 | 0.00 | 75 | 1005.4 | |
| 20260507225350 | 79 | 0.0 | 0.0 | 0.00 | 0.00 | 0.00 | 74 | 1005.3 | |
| 20260507224850 | 79 | 0.0 | 0.0 | 0.00 | 0.00 | 0.00 | 75 | 1005.4 | |
| 20260507224352 | 79 | 0.0 | 0.0 | 0.00 | 0.00 | 0.00 | 75 | 1005.1 | |
| 20260507223850 | 79 | 0.0 | 0.0 | 0.00 | 0.00 | 0.00 | 74 | 1005.0 | |
| 20260507223353 | 79 | 0.0 | 0.0 | 0.00 | 0.00 | 0.00 | 73 | 1005.0 | |
| 20260507222850 | 79 | 0.0 | 0.0 | 0.00 | 0.00 | 0.00 | 73 | 1004.9 | |
| 20260507222350 | 79 | 0.0 | 0.0 | 0.00 | 0.00 | 0.00 | 72 | 1005.0 | |
| 20260507221850 | 79 | 0.0 | 0.0 | 0.00 | 0.00 | 0.00 | 71 | 1005.1 | |
| 20260507221350 | 79 | 0.0 | 0.0 | 0.00 | 0.00 | 0.00 | 71 | 1005.1 | |
| 20260507220850 | 79 | 0.0 | 0.0 | 0.00 | 0.00 | 0.00 | 70 | 1005.1 | |
| 20260507220350 | 79 | 0.0 | 0.0 | 0.00 | 0.00 | 0.00 | 70 | 1005.2 | |
| 20260507215850 | 79 | 0.0 | 0.0 | 0.00 | 0.00 | 0.00 | 70 | 1005.3 | |
| 20260507215350 | 80 | 0.0 | 0.0 | 0.00 | 0.00 | 0.00 | 70 | 1005.4 | |
| 20260507214850 | 80 | 0.0 | 0.0 | 0.00 | 0.00 | 0.00 | 70 | 1005.4 | |
| 20260507214350 | 80 | 0.0 | 0.0 | 0.00 | 0.00 | 0.00 | 70 | 1005.3 | |
| 20260507213850 | 80 | 0.0 | 0.0 | 0.00 | 0.00 | 0.00 | 71 | 1005.3 | |
| 20260507213350 | 80 | 0.0 | 0.0 | 0.00 | 0.00 | 0.00 | 71 | 1005.2 | |
| 20260507212850 | 80 | 0.0 | 0.0 | 0.00 | 0.00 | 0.00 | 71 | 1005.2 | |
| 20260507212350 | 80 | 0.0 | 0.0 | 0.00 | 0.00 | 0.00 | 72 | 1005.2 | |
| 20260507211850 | 80 | 0.0 | 0.0 | 0.00 | 0.00 | 0.00 | 71 | 1005.3 | |
| 20260507211350 | 80 | 0.0 | 0.0 | 0.00 | 0.00 | 0.00 | 70 | 1005.3 | |
| 20260507210850 | 80 | 0.0 | 0.0 | 0.00 | 0.00 | 0.00 | 70 | 1005.2 | |
| 20260507210350 | 80 | 0.0 | 0.0 | 0.00 | 0.00 | 0.00 | 70 | 1005.0 | |
| 20260507205850 | 80 | 0.0 | 0.0 | 0.00 | 0.00 | 0.00 | 70 | 1005.2 | |
| 20260507205350 | 80 | 0.0 | 0.0 | 0.00 | 0.00 | 0.00 | 70 | 1005.2 | |
| 20260507204850 | 80 | 0.0 | 0.0 | 0.00 | 0.00 | 0.00 | 71 | 1005.3 | |
| 20260507204350 | 80 | 0.0 | 0.0 | 0.00 | 0.00 | 0.00 | 71 | 1005.4 | |
| 20260507203850 | 81 | 0.0 | 0.0 | 0.00 | 0.00 | 0.00 | 71 | 1005.3 | |
| 20260507203350 | 81 | 0.0 | 0.0 | 0.00 | 0.00 | 0.00 | 71 | 1005.3 | |
| 20260507202850 | 81 | 0.0 | 0.0 | 0.00 | 0.00 | 0.00 | 71 | 1005.4 | |
| 20260507202350 | 81 | 0.0 | 0.0 | 0.00 | 0.00 | 0.00 | 71 | 1005.4 | |
| 20260507201850 | 81 | 0.0 | 0.0 | 0.00 | 0.00 | 0.00 | 71 | 1005.6 | |
| 20260507201350 | 81 | 0.0 | 0.0 | 0.00 | 0.00 | 0.00 | 71 | 1005.4 | |
| 20260507200850 | 81 | 0.0 | 0.0 | 0.00 | 0.00 | 0.00 | 70 | 1005.4 | |
| 20260507200350 | 81 | 0.0 | 0.0 | 0.00 | 0.00 | 0.00 | 70 | 1005.4 | |
| 20260507195850 | 81 | 0.0 | 0.0 | 0.00 | 0.00 | 0.00 | 69 | 1005.3 | |
| 20260507195350 | 81 | 0.0 | 0.0 | 0.00 | 0.00 | 0.00 | 69 | 1005.2 | |
| 20260507194850 | 82 | 0.0 | 0.0 | 0.00 | 0.00 | 0.00 | 69 | 1005.3 | |
| 20260507194350 | 82 | 0.0 | 0.0 | 0.00 | 0.00 | 0.00 | 68 | 1005.3 | |
| 20260507193850 | 82 | 0.0 | 0.0 | 0.00 | 0.00 | 0.00 | 68 | 1005.4 | |
| 20260507193350 | 82 | 0.0 | 0.0 | 0.00 | 0.00 | 0.00 | 67 | 1005.3 | |
| 20260507192850 | 82 | 0.0 | 0.0 | 0.00 | 0.00 | 0.00 | 67 | 1005.5 | |
| 20260507192350 | 82 | 0.0 | 0.0 | 0.00 | 0.00 | 0.00 | 66 | 1005.4 | |
| 20260507191850 | 82 | 0.0 | 0.0 | 0.00 | 0.00 | 0.00 | 66 | 1005.5 | |
| 20260507191350 | 82 | 0.0 | 0.0 | 0.00 | 0.00 | 0.00 | 65 | 1005.3 | |
| 20260507190850 | 82 | 0.0 | 0.0 | 0.00 | 0.00 | 0.00 | 64 | 1005.3 | |
| 20260507190350 | 83 | 0.0 | 0.0 | 0.00 | 0.00 | 0.00 | 64 | 1005.4 | |
| 20260507185850 | 82 | 0.0 | 0.0 | 0.00 | 0.00 | 0.00 | 64 | 1005.4 | |
| 20260507185349 | 82 | 0.0 | 0.0 | 0.00 | 0.00 | 0.00 | 63 | 1005.4 | |
| 20260507184850 | 82 | 0.0 | 0.0 | 0.00 | 0.00 | 0.00 | 64 | 1005.3 | |
| 20260507184350 | 83 | 0.0 | 0.0 | 0.00 | 0.00 | 0.00 | 64 | 1005.2 | |
| 20260507183850 | 83 | 0.0 | 0.0 | 0.00 | 0.00 | 0.00 | 64 | 1005.1 | |
| 20260507183350 | 83 | 0.0 | 0.0 | 0.00 | 0.00 | 0.00 | 65 | 1005.2 | |
| 20260507182849 | 83 | 0.0 | 0.0 | 0.00 | 0.00 | 0.00 | 64 | 1005.0 | |
| 20260507182350 | 83 | 0.0 | 0.0 | 0.00 | 0.00 | 0.00 | 64 | 1005.2 | |
| 20260507181850 | 83 | 0.0 | 0.0 | 0.00 | 0.00 | 0.00 | 62 | 1005.4 | |
| 20260507181350 | 83 | 0.0 | 0.0 | 0.00 | 0.00 | 0.00 | 61 | 1005.5 | |
| 20260507180850 | 83 | 0.0 | 0.0 | 0.00 | 0.00 | 0.00 | 63 | 1005.6 | |
| 20260507180350 | 83 | 0.0 | 0.0 | 0.00 | 0.00 | 0.00 | 63 | 1005.7 | |
| 20260507175850 | 83 | 0.0 | 0.0 | 0.00 | 0.00 | 0.00 | 63 | 1005.6 | |
| 20260507175350 | 83 | 0.0 | 0.0 | 0.00 | 0.00 | 0.00 | 63 | 1005.7 | |
| 20260507174849 | 84 | 0.0 | 0.0 | 0.00 | 0.00 | 0.00 | 64 | 1005.7 | |
| 20260507174350 | 84 | 0.0 | 0.0 | 0.00 | 0.00 | 0.00 | 64 | 1005.8 | |
| 20260507173850 | 84 | 0.0 | 0.0 | 0.00 | 0.00 | 0.00 | 63 | 1005.7 | |
| 20260507173350 | 83 | 0.0 | 0.0 | 0.00 | 0.00 | 0.00 | 64 | 1006.0 | |
| 20260507172849 | 84 | 0.0 | 0.0 | 0.00 | 0.00 | 0.00 | 62 | 1005.9 | |
| 20260507172350 | 84 | 0.0 | 0.0 | 0.00 | 0.00 | 0.00 | 61 | 1005.9 | |
| 20260507171849 | 84 | 0.0 | 0.0 | 0.00 | 0.00 | 0.00 | 62 | 1005.9 | |
| 20260507171349 | 84 | 0.0 | 0.0 | 0.00 | 0.00 | 0.00 | 62 | 1006.2 | |
| 20260507170849 | 84 | 0.0 | 0.0 | 0.00 | 0.00 | 0.00 | 63 | 1006.2 | |
| 20260507170349 | 85 | 0.0 | 0.0 | 0.00 | 0.00 | 0.00 | 62 | 1006.0 | |
| 20260507165849 | 85 | 0.0 | 0.0 | 0.00 | 0.00 | 0.00 | 63 | 1006.1 | |
| 20260507165349 | 84 | 0.0 | 0.0 | 0.00 | 0.00 | 0.00 | 64 | 1006.4 | |
| 20260507164850 | 83 | 0.0 | 0.0 | 0.00 | 0.00 | 0.00 | 64 | 1006.6 | |
| 20260507164350 | 84 | 0.0 | 0.0 | 0.00 | 0.00 | 0.00 | 64 | 1006.7 | |
| 20260507163849 | 84 | 0.0 | 0.0 | 0.00 | 0.00 | 0.00 | 64 | 1006.6 | |
| 20260507163349 | 84 | 0.0 | 0.0 | 0.00 | 0.00 | 0.00 | 67 | 1006.7 | |
| 20260507162849 | 84 | 0.0 | 0.0 | 0.00 | 0.00 | 0.00 | 65 | 1007.1 | |
| 20260507162349 | 84 | 0.0 | 0.0 | 0.00 | 0.00 | 0.00 | 65 | 1007.0 | |
| 20260507161849 | 84 | 0.0 | 0.0 | 0.00 | 0.00 | 0.00 | 66 | 1007.2 | |
| 20260507161349 | 84 | 0.0 | 0.0 | 0.00 | 0.00 | 0.00 | 64 | 1007.4 | |
| 20260507160849 | 84 | 0.0 | 0.0 | 0.00 | 0.00 | 0.00 | 65 | 1007.3 | |
| 20260507160349 | 84 | 0.0 | 0.0 | 0.00 | 0.00 | 0.00 | 66 | 1007.6 | |
| 20260507155849 | 84 | 0.0 | 0.0 | 0.00 | 0.00 | 0.00 | 66 | 1007.4 | |
| 20260507155349 | 84 | 0.0 | 0.0 | 0.00 | 0.00 | 0.00 | 67 | 1007.8 | |
| 20260507154849 | 83 | 0.0 | 0.0 | 0.00 | 0.00 | 0.00 | 67 | 1007.8 | |
| 20260507154349 | 84 | 0.0 | 0.0 | 0.00 | 0.00 | 0.00 | 67 | 1007.9 | |
| 20260507153849 | 85 | 0.0 | 0.0 | 0.00 | 0.00 | 0.00 | 65 | 1007.9 | |
| 20260507153349 | 84 | 0.0 | 0.0 | 0.00 | 0.00 | 0.00 | 68 | 1008.1 | |
| 20260507152849 | 84 | 0.0 | 0.0 | 0.00 | 0.00 | 0.00 | 68 | 1008.4 | |
| 20260507152349 | 85 | 0.0 | 0.0 | 0.00 | 0.00 | 0.00 | 68 | 1008.0 | |
| 20260507151849 | 84 | 0.0 | 0.0 | 0.00 | 0.00 | 0.00 | 70 | 1008.5 | |
| 20260507151349 | 85 | 0.0 | 0.0 | 0.00 | 0.00 | 0.00 | 71 | 1008.6 | |
| 20260507150849 | 84 | 0.0 | 0.0 | 0.00 | 0.00 | 0.00 | 70 | 1008.7 | |
| 20260507150349 | 83 | 0.0 | 0.0 | 0.00 | 0.00 | 0.00 | 72 | 1008.9 | |
| 20260507145849 | 83 | 0.0 | 0.0 | 0.00 | 0.00 | 0.00 | 73 | 1009.0 | |
| 20260507145349 | 82 | 0.0 | 0.0 | 0.00 | 0.00 | 0.00 | 73 | 1009.2 | |
| 20260507144849 | 83 | 0.0 | 0.0 | 0.00 | 0.00 | 0.00 | 71 | 1009.2 | |
| 20260507144349 | 83 | 0.0 | 0.0 | 0.00 | 0.00 | 0.00 | 73 | 1009.4 | |
| 20260507143849 | 83 | 0.0 | 0.0 | 0.00 | 0.00 | 0.00 | 71 | 1009.5 | |
| 20260507143349 | 83 | 0.0 | 0.0 | 0.00 | 0.00 | 0.00 | 72 | 1009.4 | |
| 20260507142849 | 82 | 0.0 | 0.0 | 0.00 | 0.00 | 0.00 | 73 | 1009.8 | |
| 20260507142349 | 82 | 0.0 | 0.0 | 0.00 | 0.00 | 0.00 | 72 | 1009.8 | |
| 20260507141849 | 83 | 0.0 | 0.0 | 0.00 | 0.00 | 0.00 | 70 | 1009.7 | |
| 20260507141349 | 84 | 0.0 | 0.0 | 0.00 | 0.00 | 0.00 | 70 | 1009.8 | |
| 20260507140849 | 84 | 0.0 | 0.0 | 0.00 | 0.00 | 0.00 | 69 | 1010.0 | |
| 20260507140349 | 83 | 0.0 | 0.0 | 0.00 | 0.00 | 0.00 | 72 | 1010.3 | |
| 20260507135849 | 82 | 0.0 | 0.0 | 0.00 | 0.00 | 0.00 | 74 | 1010.6 | |
| 20260507135349 | 82 | 0.0 | 0.0 | 0.00 | 0.00 | 0.00 | 73 | 1010.6 | |
| 20260507134849 | 83 | 0.0 | 0.0 | 0.00 | 0.00 | 0.00 | 69 | 1010.4 | |
| 20260507134349 | 84 | 0.0 | 0.0 | 0.00 | 0.00 | 0.00 | 68 | 1010.3 | |
| 20260507133849 | 86 | 0.0 | 0.0 | 0.00 | 0.00 | 0.00 | 66 | 1010.0 | |
| 20260507133349 | 85 | 0.0 | 0.0 | 0.00 | 0.00 | 0.00 | 67 | 1010.2 | |
| 20260507132849 | 84 | 0.0 | 0.0 | 0.00 | 0.00 | 0.00 | 69 | 1010.5 | |
| 20260507132349 | 84 | 0.0 | 0.0 | 0.00 | 0.00 | 0.00 | 70 | 1010.5 | |
| 20260507131849 | 85 | 0.0 | 0.0 | 0.00 | 0.00 | 0.00 | 69 | 1010.4 | |
| 20260507131349 | 86 | 0.0 | 0.0 | 0.00 | 0.00 | 0.00 | 67 | 1010.4 | |
| 20260507130849 | 84 | 0.0 | 0.0 | 0.00 | 0.00 | 0.00 | 71 | 1010.7 | |
| 20260507130349 | 82 | 0.0 | 0.0 | 0.00 | 0.00 | 0.00 | 72 | 1011.0 | |
| 20260507125849 | 83 | 0.0 | 0.0 | 0.00 | 0.00 | 0.00 | 72 | 1010.9 | |
| 20260507125349 | 84 | 0.0 | 0.0 | 0.00 | 0.00 | 0.00 | 70 | 1010.6 | |
| 20260507124849 | 85 | 0.0 | 0.0 | 0.00 | 0.00 | 0.00 | 67 | 1010.5 | |
| 20260507124349 | 87 | 0.0 | 0.0 | 0.00 | 0.00 | 0.00 | 65 | 1010.5 | |
| 20260507123849 | 86 | 0.0 | 0.0 | 0.00 | 0.00 | 0.00 | 67 | 1010.5 | |
| 20260507123349 | 85 | 0.0 | 0.0 | 0.00 | 0.00 | 0.00 | 69 | 1010.6 | |
| 20260507122849 | 85 | 0.0 | 0.0 | 0.00 | 0.00 | 0.00 | 70 | 1010.6 | |
| 20260507122349 | 85 | 0.0 | 0.0 | 0.00 | 0.00 | 0.00 | 72 | 1010.9 | |
| 20260507121849 | 83 | 0.0 | 0.0 | 0.00 | 0.00 | 0.00 | 75 | 1010.9 | |
| 20260507121349 | 81 | 0.0 | 0.0 | 0.00 | 0.00 | 0.00 | 80 | 1011.1 | |
| 20260507120849 | 82 | 0.0 | 0.0 | 0.00 | 0.00 | 0.00 | 78 | 1011.0 | |
| 20260507120349 | 81 | 0.0 | 0.0 | 0.00 | 0.00 | 0.00 | 80 | 1011.2 | |
| 20260507115849 | 79 | 0.0 | 0.0 | 0.00 | 0.00 | 0.00 | 87 | 1011.4 | |
| 20260507115349 | 75 | 0.0 | 0.0 | 0.00 | 0.00 | 0.00 | 94 | 1011.9 | |
| 20260507114849 | 75 | 0.0 | 0.0 | 0.00 | 0.00 | 0.00 | 94 | 1011.8 | |
| 20260507114349 | 75 | 0.0 | 0.0 | 0.00 | 0.00 | 0.00 | 95 | 1011.9 | |
| 20260507113849 | 75 | 0.0 | 0.0 | 0.00 | 0.00 | 0.00 | 95 | 1012.0 | |
| 20260507113349 | 75 | 0.0 | 0.0 | 0.00 | 0.00 | 0.00 | 95 | 1012.1 | |
| 20260507112849 | 75 | 0.0 | 0.0 | 0.00 | 0.00 | 0.00 | 95 | 1012.1 | |
| 20260507112349 | 75 | 0.0 | 0.0 | 0.00 | 0.00 | 0.00 | 95 | 1012.0 | |
| 20260507111849 | 75 | 0.0 | 0.0 | 0.00 | 0.00 | 0.00 | 96 | 1011.9 | |
| 20260507111349 | 75 | 0.0 | 0.0 | 0.00 | 0.00 | 0.00 | 95 | 1012.0 | |
| 20260507110849 | 75 | 0.0 | 0.0 | 0.00 | 0.00 | 0.00 | 95 | 1012.1 | |
| 20260507110349 | 75 | 0.0 | 0.0 | 0.00 | 0.00 | 0.00 | 96 | 1011.9 | |
| 20260507105849 | 75 | 0.0 | 0.0 | 0.00 | 0.00 | 0.00 | 97 | 1011.9 | |
| 20260507105349 | 75 | 0.0 | 0.0 | 0.00 | 0.00 | 0.00 | 96 | 1011.9 | |
| 20260507104849 | 75 | 0.0 | 0.0 | 0.00 | 0.00 | 0.00 | 97 | 1011.9 | |
| 20260507104349 | 74 | 0.0 | 0.0 | 0.00 | 0.00 | 0.00 | 97 | 1011.9 | |
| 20260507103849 | 74 | 0.0 | 0.0 | 0.00 | 0.00 | 0.00 | 97 | 1011.9 | |
| 20260507103349 | 74 | 0.0 | 0.0 | 0.00 | 0.00 | 0.00 | 97 | 1012.0 | |
| 20260507102849 | 74 | 0.0 | 0.0 | 0.00 | 0.00 | 0.00 | 96 | 1012.0 | |
| 20260507102349 | 74 | 0.0 | 0.0 | 0.00 | 0.00 | 0.00 | 97 | 1012.0 | |
| 20260507101850 | 74 | 0.0 | 0.0 | 0.00 | 0.00 | 0.00 | 96 | 1012.0 | |
| 20260507101349 | 75 | 0.0 | 0.0 | 0.00 | 0.00 | 0.00 | 96 | 1012.1 | |
| 20260507100849 | 75 | 0.0 | 0.0 | 0.00 | 0.00 | 0.00 | 96 | 1011.9 | |
| 20260507100349 | 75 | 0.0 | 0.0 | 0.00 | 0.00 | 0.00 | 96 | 1011.9 | |
| 20260507095849 | 74 | 0.0 | 0.0 | 0.00 | 0.00 | 0.00 | 97 | 1012.0 | |
| 20260507095349 | 74 | 0.0 | 0.0 | 0.00 | 0.00 | 0.00 | 97 | 1012.0 | |
| 20260507094849 | 74 | 0.0 | 0.0 | 0.00 | 0.00 | 0.00 | 98 | 1012.0 | |
| 20260507094349 | 74 | 0.0 | 0.0 | 0.00 | 0.00 | 0.00 | 98 | 1012.0 | |
| 20260507093849 | 74 | 0.0 | 0.0 | 0.00 | 0.00 | 0.00 | 98 | 1012.0 | |
| 20260507093349 | 74 | 0.0 | 0.0 | 0.00 | 0.00 | 0.00 | 98 | 1011.9 | |
| 20260507092849 | 74 | 0.0 | 0.0 | 0.00 | 0.00 | 0.00 | 97 | 1011.9 | |
| 20260507092349 | 74 | 0.0 | 0.0 | 0.00 | 0.00 | 0.00 | 97 | 1011.8 | |
| 20260507091849 | 75 | 0.0 | 0.0 | 0.00 | 0.00 | 0.00 | 98 | 1011.8 | |
| 20260507091349 | 75 | 0.0 | 0.0 | 0.00 | 0.00 | 0.00 | 98 | 1011.8 | |
| 20260507090849 | 74 | 0.0 | 0.0 | 0.00 | 0.00 | 0.00 | 98 | 1011.9 | |
| 20260507090349 | 74 | 0.0 | 0.0 | 0.00 | 0.00 | 0.00 | 98 | 1011.9 | |
| 20260507085849 | 74 | 0.0 | 0.0 | 0.00 | 0.00 | 0.00 | 98 | 1011.9 |